Lid_Strength_Index
2 2 2 3 4 4 5 8 9 5 4 11 12 12 9 9 8 7 9 6 10 10 10 12 12 11 10 8 8 10 9 13 14 13 9 7 10 11 12 14 15 15 15 15
2 2 3 3 4 4 8 10 7 5 6 13 13 11 9 8 8 8 9 9 7 8 11 12 10 8 7 6 7 9 9 13 15 13 11 10 10 10 11 12 14 15 16 14
2 2 3 4 4 4 7 8 10 7 8 10 11 12 10 9 6 7 8 8 7 8 10 10 10 9 7 6 6 4 7 13 13 15 12 11 12 10 10 12 14 14 14 13
2 2 3 4 4 4 8 9 9 7 10 11 10 11 10 9 9 8 8 9 8 8 11 9 10 9 8 7 5 8 10 12 10 12 10 10 11 10 10 12 13 14 13 12
2 1 3 4 4 4 8 9 8 8 8 8 10 11 11 9 8 9 9 9 8 8 11 9 10 9 10 10 9 10 10 12 11 12 10 10 11 10 10 10 10 10 10 11
2 1 3 3 4 4 9 6 5 7 9 8 11 11 10 8 8 7 7 7 8 8 8 7 6 7 7 8 9 10 11 12 13 14 11 11 13 10 10 10 9 9 13 11
2 2 2 3 4 4 7 8 7 8 10 9 9 7 7 7 8 7 6 6 8 7 7 7 8 8 8 9 10 10 11 12 13 14 14 16 12 8 8 9 9 8 8 8
2 2 2 3 3 4 6 6 7 8 11 8 8 7 7 7 8 7 7 7 7 7 7 10 12 12 10 9 10 10 10 12 13 15 15 13 10 9 9 11 11 8 9 8
2 2 2 3 3 4 6 7 6 7 9 9 6 8 7 9 9 9 7 6 6 7 9 11 13 14 13 12 10 10 10 11 12 14 15 17 12 8 7 7 14 7 8 8
2 2 2 2 3 4 6 7 5 6 9 7 6 8 8 7 9 9 8 7 8 8 11 12 13 13 10 12 13 12 12 12 13 14 14 13 9 7 6 14 13 7 8 8
3 3 3 3 3 3 5 7 5 5 7 7 5 4 7 8 9 10 8 8 7 8 11 12 12 12 11 11 11 12 12 13 14 14 16 17 7 8 11 9 9 8 8 8
4 4 3 3 3 3 4 7 4 3 5 5 5 5 4 5 6 9 9 8 8 8 9 10 10 11 11 12 13 10 12 11 12 12 13 8 7 7 7 7 8 8 6 6
4 4 4 3 3 4 5 8 7 5 5 5 6 6 4 6 6 6 9 8 7 7 6 9 10 11 10 12 12 12 9 9 10 11 9 8 7 6 6 5 6 5 5 5
5 5 5 4 4 4 5 8 7 7 7 9 7 4 6 6 6 6 7 8 7 7 8 10 11 11 9 11 10 10 9 8 10 11 9 7 6 6 5 5 5 5 4 4
6 5 5 4 4 4 5 7 7 6 6 9 7 4 5 6 6 7 6 8 8 9 10 11 12 10 9 10 10 10 9 9 11 12 8 9 8 6 5 5 5 5 5 5
6 6 5 4 4 4 7 7 4 5 5 8 10 5 6 6 5 6 6 6 9 9 10 10 9 9 9 11 12 8 7 6 7 8 7 6 5 5 4 5 5 4 4 4
6 6 5 4 5 7 9 7 5 6 7 8 9 8 6 5 6 6 6 6 6 7 9 9 8 9 9 11 12 8 7 6 6 5 5 7 6 6 4 4 4 4 4 4
6 6 6 5 5 6 8 7 7 7 8 6 10 9 8 6 7 7 6 7 7 7 8 8 8 7 9 11 9 7 6 6 5 5 5 5 5 4 4 4 4 5 5 4
6 6 6 7 7 7 4 2 5 5 4 9 9 10 11 6 7 7 7 7 9 7 9 9 8 10 11 9 8 7 6 7 7 5 5 5 5 5 5 5 5 5 5 4
5 7 8 8 5 1 2 5 6 6 6 6 9 7 9 8 8 8 8 8 10 11 9 7 10 11 8 7 7 6 6 6 5 7 7 6 6 6 5 5 4 5 4 4
7 8 8 5 3 4 5 8 9 8 10 8 8 8 9 6 8 9 8 10 10 12 10 10 12 12 9 6 6 6 5 4 4 4 5 5 5 5 5 5 4 4 5 5
6 8 7 6 5 7 9 10 9 9 10 8 9 8 8 7 5 8 8 10 10 13 8 10 14 10 7 6 5 5 4 4 4 4 4 4 4 4 5 4 4 4 4 4
4 7 6 7 7 12 12 13 11 11 8 7 8 9 8 7 7 8 8 11 11 8 11 12 11 8 6 6 5 5 4 4 4 4 4 3 4 3 4 4 3 4 5 5
6 8 13 10 11 10 10 9 9 7 7 7 8 8 8 8 8 9 11 9 9 12 13 13 10 7 6 6 6 5 5 4 4 4 4 4 4 4 3 3 4 4 5 5
7 7 13 10 8 7 6 6 7 6 6 7 7 7 7 9 9 9 10 11 12 12 12 11 8 7 7 6 5 5 5 4 4 4 4 4 4 4 4 4 3 4 5 6
6 7 9 8 8 8 7 7 7 6 6 6 7 9 10 11 10 11 11 12 12 12 10 7 6 6 6 5 5 5 4 5 5 4 4 4 4 4 4 4 4 6 6 6
7 8 6 7 7 8 7 7 7 4 6 9 8 11 11 9 11 11 9 11 10 8 7 6 6 6 5 5 5 4 4 5 4 4 4 4 4 3 4 6 7 6 5 6